Terminal Aerodrome Forecast
Issued by NWS Twin Cities, MN

Home | Current Version | Previous Version | Graphics & Text | Print | Product List | Glossary On
Versions: 1 2 3 4 5 6 7 8 9 10 11 12 13 14 15 16 17 18 19 20 21 22 23 24 25 26 27 28
336
FTUS43 KMPX 242124 AAB
TAFMSP
TAF AMD
KMSP 242124Z 2421/2524 31014G22KT P6SM VCSH SCT040 BKN060 BKN110
     FM250000 30012KT P6SM SCT150
     FM250900 30007KT P6SM BKN015 BKN025
     FM251600 30014G20KT P6SM SCT020 BKN035=

USA.gov is the U.S. government's official web portal to all federal, state and local government web resources and services.